TimeCDT,TemperatureF,Dew PointF,Humidity,Sea Level PressureIn,VisibilityMPH,Wind Direction,Wind SpeedMPH,Gust SpeedMPH,PrecipitationIn,Events,Conditions,WindDirDegrees,DateUTC
12:53 AM,73.0,57.9,59,29.79,10.0,South,11.5,-,N/A,,Clear,190,2013-06-10 05:53:00
1:53 AM,70.0,57.0,63,29.78,10.0,SSW,9.2,-,N/A,,Clear,200,2013-06-10 06:53:00
2:53 AM,69.1,57.9,68,29.77,10.0,SSW,10.4,-,N/A,,Clear,210,2013-06-10 07:53:00
3:53 AM,70.0,55.9,61,29.76,10.0,SSW,15.0,-,N/A,,Clear,210,2013-06-10 08:53:00
4:53 AM,73.0,55.0,53,29.74,10.0,SW,19.6,25.3,N/A,,Clear,220,2013-06-10 09:53:00
5:53 AM,71.1,55.0,57,29.74,10.0,SSW,18.4,-,N/A,,Clear,210,2013-06-10 10:53:00
6:53 AM,70.0,55.0,59,29.76,10.0,SSW,16.1,-,N/A,,Clear,200,2013-06-10 11:53:00
7:53 AM,73.9,55.0,52,29.76,10.0,SSW,16.1,-,N/A,,Clear,210,2013-06-10 12:53:00
8:53 AM,81.0,54.0,39,29.75,10.0,SW,21.9,32.2,N/A,,Clear,230,2013-06-10 13:53:00
9:53 AM,87.1,54.0,32,29.75,10.0,SW,24.2,31.1,N/A,,Clear,230,2013-06-10 14:53:00
10:53 AM,91.0,54.0,28,29.74,10.0,SW,19.6,26.5,N/A,,Clear,230,2013-06-10 15:53:00
11:53 AM,97.0,54.0,23,29.73,10.0,SSW,20.7,28.8,N/A,,Clear,210,2013-06-10 16:53:00
12:53 PM,100.0,53.1,21,29.71,10.0,SSW,23.0,28.8,N/A,,Clear,200,2013-06-10 17:53:00
1:53 PM,104.0,44.1,13,29.68,10.0,SSW,26.5,34.5,N/A,,Clear,210,2013-06-10 18:53:00
2:53 PM,105.1,44.1,13,29.66,10.0,SSW,25.3,34.5,N/A,,Clear,200,2013-06-10 19:53:00
3:53 PM,105.1,44.1,13,29.65,10.0,SSW,23.0,34.5,N/A,,Clear,200,2013-06-10 20:53:00
4:53 PM,105.1,41.0,11,29.63,10.0,SSW,24.2,32.2,N/A,,Clear,200,2013-06-10 21:53:00
5:53 PM,100.9,43.0,14,29.62,10.0,South,20.7,31.1,N/A,,Clear,190,2013-06-10 22:53:00
6:53 PM,100.0,45.0,15,29.62,10.0,South,21.9,32.2,N/A,,Clear,180,2013-06-10 23:53:00
7:53 PM,97.0,48.0,19,29.65,10.0,South,19.6,28.8,N/A,,Clear,180,2013-06-11 00:53:00
8:53 PM,93.0,48.9,22,29.65,10.0,South,17.3,-,N/A,,Clear,170,2013-06-11 01:53:00
9:53 PM,89.1,48.9,25,29.66,10.0,South,18.4,25.3,N/A,,Clear,180,2013-06-11 02:53:00
10:53 PM,87.1,48.9,27,29.68,10.0,South,18.4,-,N/A,,Clear,180,2013-06-11 03:53:00
11:53 PM,84.9,50.0,30,29.69,10.0,South,16.1,25.3,N/A,,Clear,180,2013-06-11 04:53:00